Wind_Speed
19 18 18 19 19 17 17 17 17 17 18 18 18 19 19 20 20 20 21 22 23 24 25 25 27 28 28 28 28 28 28 28 29 29 28 28 27 27 27 27 27 27 27
17 17 17 17 18 18 17 16 16 17 18 18 19 21 21 20 21 22 22 23 24 25 25 26 28 29 29 29 28 28 28 28 28 29 29 28 27 27 27 27 26 26 27
16 16 17 17 17 17 17 17 17 18 18 19 21 22 22 21 22 22 23 24 25 26 27 27 28 28 29 29 28 28 28 28 28 28 28 28 27 27 27 27 26 26 26
16 16 18 19 18 17 18 18 19 19 20 21 22 22 23 23 24 24 24 25 27 27 28 28 28 28 29 29 28 27 27 27 27 27 27 27 27 27 27 27 27 27 26
18 18 18 19 19 19 20 21 21 21 21 22 23 24 25 25 26 26 26 27 28 28 28 29 28 28 28 28 28 28 27 27 27 26 27 27 27 27 27 28 27 27 27
18 19 19 19 20 21 21 21 22 22 23 23 24 25 26 27 27 27 28 28 28 28 28 29 28 28 28 28 28 27 27 27 26 26 26 27 27 27 27 27 26 26 27
18 18 19 21 22 23 24 24 24 24 25 25 26 26 27 27 28 28 28 28 28 28 28 28 28 28 28 27 27 27 27 26 26 26 26 27 27 27 27 26 26 26 27
19 19 21 22 24 25 25 25 25 25 26 27 27 27 28 28 28 28 28 28 28 28 28 28 28 28 28 28 27 27 27 26 26 25 25 25 26 26 26 26 26 27 27
20 21 21 22 23 23 24 25 25 26 27 27 27 27 28 28 28 27 27 27 27 27 27 27 27 27 28 28 27 27 26 26 26 25 25 25 25 25 26 26 27 27 26
21 21 21 21 21 23 24 24 25 26 26 26 27 27 27 27 27 27 27 27 27 27 27 27 27 27 27 27 27 27 27 26 26 25 25 25 24 25 25 25 25 25 26
21 20 21 21 21 21 21 23 23 24 25 25 26 26 27 26 26 26 27 26 27 26 25 25 25 26 25 25 26 26 26 26 25 25 24 24 24 24 24 24 24 24 24
21 20 21 22 21 21 21 21 22 23 23 24 25 25 26 26 26 25 25 26 26 25 24 24 24 24 24 23 23 23 23 24 24 24 25 24 24 24 23 23 23 23 23
21 21 21 20 21 21 22 22 22 22 23 24 24 25 25 25 25 24 24 23 23 23 23 22 22 22 22 22 22 22 22 22 22 22 24 24 24 24 23 23 22 23 23
20 20 19 19 20 20 21 21 22 22 23 23 23 23 23 22 22 22 21 21 21 21 20 19 19 20 20 20 20 20 21 21 20 20 21 21 22 22 21 21 22 21 21
19 19 19 19 19 20 20 21 22 22 21 21 21 21 20 19 18 18 17 17 17 16 16 16 16 17 17 17 17 17 17 18 18 18 18 18 19 21 20 19 19 20 20
18 18 18 18 19 19 19 20 20 20 20 19 19 18 17 16 15 15 14 13 13 13 13 13 13 13 13 13 13 13 14 15 15 15 15 16 17 17 17 17 18 18 18
18 18 18 18 18 18 18 18 18 17 17 17 16 15 14 13 12 12 11 10 10 10 10 9 10 10 10 10 10 10 10 11 11 11 11 12 13 14 14 14 13 13 14
17 17 16 17 17 17 16 15 14 14 14 13 13 12 11 10 10 9 8 7 7 7 7 7 6 6 6 6 6 6 6 5 5 6 6 7 8 9 9 10 10 9 10
16 16 15 15 15 14 13 12 12 11 11 11 10 9 9 8 7 6 5 5 5 5 4 4 4 3 3 3 2 2 2 2 2 2 3 3 3 4 4 5 5 6 7
14 14 13 12 11 11 11 10 9 8 8 8 7 7 7 6 6 5 4 3 3 2 2 2 1 1 2 2 2 0 0 1 2 2 2 2 2 2 2 2 3 4 5
12 11 10 9 9 9 9 8 7 6 6 6 5 5 4 4 4 3 3 2 2 1 1 2 2 2 1 1 2 3 2 2 3 3 3 3 2 2 2 1 1 2 3
9 8 8 8 8 7 6 5 4 4 4 4 4 4 3 4 4 3 3 3 3 3 3 3 3 3 3 3 3 3 3 4 4 4 4 4 4 4 4 3 2 2 1
7 8 8 7 6 5 4 3 3 3 3 3 3 3 4 4 4 4 4 4 4 4 4 5 5 5 5 5 5 5 5 5 5 6 6 6 6 6 5 5 4 4 3
7 7 7 7 6 5 4 3 2 2 3 4 4 4 5 6 6 6 6 7 7 7 7 7 8 8 8 8 8 8 9 9 9 8 7 7 7 6 6 6 6 6 5
7 7 6 6 6 5 4 4 4 4 4 5 5 5 6 7 7 8 8 9 9 9 9 9 9 10 11 11 11 11 10 10 9 9 8 8 8 7 7 7 7 7 8
7 7 7 7 7 7 6 6 6 6 6 6 7 7 7 7 7 8 9 9 9 10 10 10 11 11 11 11 11 11 11 11 10 10 10 10 10 10 10 10 10 10 10
Wind_Direction
284 283 284 286 284 282 278 272 272 271 267 265 261 263 266 266 268 269 269 269 270 269 271 272 272 272 273 273 273 273 272 270 269 268 268 269 269 268 267 264 263 261 259
280 283 284 283 283 280 276 271 271 272 269 268 266 267 270 271 270 268 268 269 271 271 272 273 272 272 272 273 273 273 272 271 270 268 267 267 267 268 265 263 263 263 261
280 281 281 279 282 281 276 273 272 273 270 271 272 272 273 274 273 271 272 274 273 273 273 273 272 272 271 272 272 273 272 271 270 269 267 267 267 267 264 261 261 263 262
283 285 282 280 282 281 277 276 276 275 274 274 275 277 276 276 275 275 274 275 275 274 273 273 272 271 271 271 271 272 271 271 270 269 268 265 265 264 262 261 261 262 263
286 288 283 279 282 282 279 277 275 275 276 276 277 278 278 278 277 275 274 274 274 273 273 272 272 270 270 270 271 270 270 269 269 268 267 266 264 264 263 261 261 261 261
288 286 282 282 283 284 280 276 275 275 275 277 278 278 278 279 277 276 275 274 274 273 273 273 271 269 269 269 269 268 269 268 267 267 266 265 264 263 264 262 261 261 260
287 286 283 281 282 282 280 278 276 277 277 277 277 278 279 278 277 276 275 275 274 273 273 273 272 270 269 269 268 267 267 267 266 266 265 264 262 262 262 261 261 261 260
286 287 287 284 284 281 277 276 278 279 278 278 278 278 278 279 278 276 276 275 275 274 273 272 272 271 270 270 268 267 267 266 266 265 264 263 262 261 260 260 261 261 260
292 293 291 290 287 281 278 278 278 279 278 278 278 278 279 279 277 276 276 276 275 274 273 272 272 272 271 270 269 268 266 266 265 264 263 262 262 261 261 260 260 261 261
293 294 291 290 288 285 281 280 280 280 280 281 280 279 279 279 279 278 276 276 275 274 273 273 273 272 271 271 270 268 267 265 263 263 261 260 260 260 261 261 260 259 261
294 292 292 293 290 287 284 283 281 281 281 280 280 279 279 280 280 278 277 276 275 274 274 275 275 273 272 270 268 267 267 265 263 262 261 259 257 258 259 259 259 262 262
294 293 292 293 291 288 286 284 283 283 283 283 283 282 281 281 280 281 280 277 275 275 275 275 274 272 271 270 268 267 267 265 263 261 260 258 257 257 257 257 259 260 261
295 293 294 294 291 287 286 285 284 284 284 284 285 285 284 283 282 281 281 278 277 276 275 273 273 273 272 271 270 269 268 265 263 262 259 258 258 259 258 258 258 260 260
297 296 295 292 290 288 287 286 285 286 287 288 288 289 289 287 284 281 280 279 278 277 275 274 273 273 272 270 270 269 269 268 262 262 262 260 258 257 257 257 258 259 258
299 297 296 294 292 290 290 288 288 288 288 290 291 292 293 291 288 285 283 281 279 279 275 275 276 275 273 271 270 269 268 266 261 260 259 258 258 254 256 257 257 256 256
300 301 299 297 295 293 293 291 290 289 289 290 292 294 295 295 292 288 287 281 280 278 276 276 278 278 275 272 273 271 268 265 261 257 255 254 253 254 255 256 257 257 257
301 300 297 296 294 293 293 292 291 291 291 293 294 295 297 299 297 293 287 283 282 281 281 279 279 281 279 279 278 275 272 267 261 258 253 251 252 252 256 256 257 259 256
304 301 298 297 296 295 295 294 296 295 295 296 298 298 300 302 299 297 292 287 285 287 285 283 286 293 291 290 287 282 280 268 263 260 252 246 247 251 250 250 255 259 261
307 303 299 297 297 296 296 297 298 298 299 300 300 301 303 308 309 308 304 295 291 291 296 296 303 305 302 305 300 286 285 275 250 231 224 233 244 241 238 241 247 259 263
311 309 306 302 301 301 300 299 302 306 308 307 307 310 312 317 321 322 328 322 313 312 305 327 357 357 333 331 347 196 217 177 156 158 166 173 180 184 194 215 233 248 251
316 314 312 312 311 310 309 309 307 311 313 316 326 334 334 338 339 343 352 358 3 12 25 17 12 21 27 66 83 110 116 126 133 130 129 127 128 133 140 164 213 240 245
325 323 319 321 318 318 318 317 325 330 333 342 353 4 12 16 24 35 42 50 61 66 60 53 60 69 79 90 95 105 119 117 116 118 118 115 107 99 96 93 84 77 88
340 339 341 342 340 342 339 337 352 4 14 25 35 42 46 51 56 59 62 66 74 76 73 76 81 85 93 97 96 98 108 114 113 109 104 98 91 84 82 81 76 69 65
1 3 10 10 11 17 24 24 19 37 52 60 65 72 72 71 70 70 75 81 84 85 87 89 90 91 93 94 97 101 103 104 104 103 97 92 90 86 79 73 73 72 71
17 25 29 26 27 35 47 54 67 77 82 82 86 89 86 82 79 80 83 84 84 86 88 89 90 93 95 94 94 97 99 99 98 97 95 92 87 84 81 78 76 77 76
28 34 36 39 50 59 64 69 79 87 90 90 90 90 89 86 86 88 90 90 89 90 94 95 95 95 95 95 94 94 94 94 94 94 93 91 88 85 83 83 81 78 76
Height
5837 5837 5837 5836 5836 5836 5835 5834 5835 5835 5835 5835 5836 5836 5837 5837 5836 5836 5836 5836 5836 5836 5836 5836 5836 5836 5835 5835 5835 5835 5835 5835 5835 5835 5836 5836 5836 5837 5838 5838 5839 5840 5841
5833 5833 5833 5832 5832 5831 5831 5831 5831 5831 5831 5831 5831 5832 5831 5831 5831 5830 5830 5830 5830 5830 5830 5829 5829 5829 5828 5828 5828 5828 5828 5828 5828 5829 5829 5830 5831 5831 5831 5832 5833 5833 5834
5830 5829 5829 5829 5828 5827 5827 5827 5826 5827 5827 5826 5826 5825 5825 5825 5824 5824 5824 5824 5823 5823 5823 5822 5822 5822 5821 5821 5821 5821 5821 5821 5821 5822 5822 5823 5824 5824 5825 5825 5826 5827 5828
5827 5826 5825 5825 5825 5824 5823 5823 5823 5822 5822 5822 5821 5820 5820 5819 5819 5818 5818 5817 5816 5815 5815 5815 5814 5814 5814 5814 5814 5814 5814 5815 5815 5815 5815 5816 5817 5818 5818 5819 5820 5821 5822
5824 5822 5821 5821 5820 5819 5818 5818 5818 5818 5817 5816 5815 5815 5814 5813 5812 5812 5811 5810 5809 5808 5808 5807 5807 5807 5807 5807 5807 5807 5807 5807 5808 5808 5808 5809 5809 5810 5812 5812 5813 5814 5815
5819 5818 5817 5816 5815 5814 5813 5813 5812 5812 5811 5810 5809 5808 5807 5806 5805 5804 5803 5803 5802 5801 5800 5800 5799 5799 5799 5800 5800 5800 5800 5800 5801 5801 5801 5802 5803 5804 5805 5805 5806 5807 5808
5815 5813 5812 5811 5810 5809 5807 5807 5806 5805 5804 5804 5803 5802 5801 5799 5798 5797 5796 5795 5794 5794 5793 5792 5792 5792 5792 5792 5792 5793 5793 5793 5794 5794 5794 5795 5796 5797 5798 5799 5799 5800 5801
5810 5808 5807 5806 5804 5802 5801 5800 5800 5799 5798 5797 5796 5794 5793 5792 5791 5790 5789 5788 5787 5786 5786 5785 5785 5784 5784 5784 5784 5785 5785 5786 5786 5787 5787 5788 5788 5789 5790 5792 5793 5793 5794
5806 5804 5802 5800 5797 5795 5794 5794 5793 5792 5791 5789 5788 5787 5786 5785 5783 5782 5781 5780 5779 5779 5778 5778 5777 5777 5777 5777 5777 5777 5778 5778 5779 5780 5780 5781 5781 5782 5783 5784 5785 5787 5787
5800 5798 5796 5794 5793 5791 5789 5788 5787 5785 5784 5783 5781 5780 5779 5777 5776 5775 5774 5773 5772 5771 5770 5770 5769 5769 5769 5769 5770 5770 5770 5771 5772 5772 5773 5774 5775 5776 5776 5777 5778 5779 5780
5795 5793 5791 5789 5787 5785 5783 5782 5780 5779 5777 5776 5775 5773 5772 5770 5768 5767 5766 5765 5764 5763 5763 5762 5762 5762 5762 5762 5762 5762 5763 5763 5764 5765 5766 5767 5768 5769 5770 5771 5771 5772 5773
5789 5787 5785 5783 5781 5779 5777 5776 5774 5772 5771 5769 5768 5766 5764 5762 5761 5760 5758 5758 5757 5756 5755 5755 5755 5755 5754 5754 5755 5755 5755 5756 5757 5758 5759 5760 5761 5762 5763 5764 5765 5766 5767
5783 5782 5780 5777 5775 5773 5771 5769 5767 5766 5764 5762 5761 5759 5757 5755 5753 5752 5751 5750 5750 5749 5748 5748 5748 5748 5748 5748 5748 5748 5749 5749 5750 5751 5752 5753 5754 5756 5757 5758 5759 5760 5761
5778 5776 5774 5772 5769 5767 5765 5763 5761 5759 5758 5756 5754 5752 5750 5748 5747 5746 5745 5744 5743 5743 5742 5742 5742 5742 5741 5742 5742 5742 5742 5743 5744 5745 5746 5747 5748 5750 5751 5752 5753 5754 5755
5773 5770 5768 5766 5764 5762 5760 5757 5755 5753 5752 5750 5748 5746 5744 5743 5741 5740 5739 5738 5738 5737 5737 5737 5737 5736 5736 5736 5736 5737 5737 5737 5738 5739 5740 5741 5743 5744 5745 5747 5748 5749 5750
5768 5765 5763 5761 5759 5756 5754 5752 5750 5748 5746 5745 5743 5742 5740 5738 5737 5736 5735 5734 5733 5733 5733 5732 5732 5732 5732 5732 5732 5732 5733 5733 5733 5734 5735 5736 5737 5739 5740 5741 5743 5744 5745
5763 5760 5758 5756 5754 5752 5749 5747 5745 5743 5742 5740 5739 5738 5736 5734 5733 5732 5731 5730 5730 5730 5729 5729 5729 5728 5728 5728 5728 5728 5729 5729 5729 5730 5731 5732 5733 5735 5736 5737 5738 5739 5740
5758 5756 5753 5751 5749 5747 5744 5743 5741 5740 5738 5737 5735 5734 5733 5732 5730 5729 5728 5728 5727 5727 5727 5726 5726 5726 5726 5726 5726 5726 5726 5726 5727 5728 5728 5729 5731 5732 5733 5734 5735 5736 5737
5754 5751 5749 5747 5744 5742 5741 5739 5738 5736 5735 5734 5733 5732 5730 5729 5728 5727 5726 5726 5725 5725 5725 5725 5725 5725 5724 5724 5724 5725 5725 5725 5726 5726 5727 5728 5729 5730 5731 5732 5733 5734 5734
5749 5747 5745 5743 5741 5739 5738 5736 5735 5734 5733 5732 5731 5730 5728 5728 5727 5726 5725 5725 5724 5724 5724 5724 5724 5724 5724 5724 5724 5724 5725 5725 5726 5726 5727 5728 5729 5729 5730 5731 5731 5732 5732
5746 5744 5742 5740 5738 5737 5735 5734 5733 5732 5731 5730 5729 5728 5727 5727 5726 5725 5725 5724 5724 5724 5724 5724 5724 5724 5724 5724 5724 5725 5725 5726 5726 5727 5727 5728 5729 5729 5730 5730 5731 5731 5731
5744 5742 5740 5738 5736 5735 5734 5733 5732 5731 5730 5729 5729 5728 5727 5727 5726 5725 5725 5725 5725 5724 5724 5724 5724 5724 5725 5725 5725 5725 5726 5727 5727 5728 5728 5729 5729 5729 5730 5730 5730 5731 5731
5742 5740 5738 5737 5735 5734 5733 5732 5732 5731 5730 5730 5729 5728 5728 5727 5727 5726 5726 5726 5726 5726 5726 5726 5726 5726 5726 5726 5726 5726 5727 5728 5728 5729 5729 5730 5730 5730 5731 5731 5731 5731 5731
5742 5740 5738 5736 5735 5734 5733 5733 5732 5731 5731 5730 5730 5730 5729 5729 5728 5728 5728 5727 5727 5727 5727 5728 5728 5728 5728 5728 5728 5729 5729 5729 5730 5731 5731 5731 5732 5732 5732 5732 5732 5732 5732
5742 5740 5739 5737 5736 5735 5734 5733 5733 5732 5732 5732 5732 5731 5731 5731 5731 5731 5730 5730 5730 5730 5730 5730 5730 5730 5730 5731 5731 5731 5732 5732 5732 5733 5733 5733 5734 5734 5734 5734 5734 5734 5733
5743 5741 5740 5738 5737 5736 5735 5735 5734 5734 5734 5733 5733 5733 5733 5733 5733 5733 5733 5733 5733 5733 5733 5733 5733 5733 5734 5734 5734 5734 5735 5735 5735 5735 5736 5736 5736 5736 5736 5736 5736 5736 5735